[Iaude] MPEC P48: 2024 NE4 [a=1.46,e=0.24,i=13.6,H=22.94]

mpec at cfa.harvard.edu mpec at cfa.harvard.edu
Sat Aug 3 10:13:27 EDT 2024


M.P.E.C. 2024-P48                                Issued 2024 August 3, 14:12 UT

     The Minor Planet Electronic Circulars contain information on unusual
         minor planets, routine data on comets and natural satellites,
         and occasional editorial announcements.  They are published
    on behalf of Division F of the International Astronomical Union by the
          Minor Planet Center, Smithsonian Astrophysical Observatory,
                          Cambridge, MA 02138, U.S.A.
			  
             Prepared using the Tamkin Foundation Computer Network

                              MPC at CFA.HARVARD.EDU
            URL https://www.minorplanetcenter.net/    ISSN 1523-6714

                                    2024 NE4                                    


                           Revision to MPEC 2024-O109                           

Additional Observations:
     K24N04E  C2017 08 18.49002423 32 38.206-16 30 42.64         19.05GVEP048F51
     K24N04E  C2017 08 18.50117923 32 41.630-16 31 59.56         18.91GVEP048F51
     K24N04E &C2017 10 17.33701601 55 04.73 -46 09 18.3          22.4 rWEP048W84
     K24N04E &C2017 11 10.12067101 54 14.37 -37 05 51.9                WEP048W84
     K24N04E &C2017 11 10.12204001 54 14.38 -37 05 49.5                WEP048W84
     K24N04E &C2017 11 10.12343701 54 14.37 -37 05 47.2                WEP048W84
     K24N04E &C2020 01 26.08614208 09 12.01 +09 51 24.2                WEP048W84
     K24N04E &C2020 01 27.09553408 07 33.16 +10 09 49.9                WEP048W84

Observer details:
F51 Pan-STARRS 1, Haleakala.  Observers J. Herman, T. Lowe, P. Minguez, A.
    Schultz, I. Smith.  Measurers K. Chambers, T. de Boer, J. Fairlamb, H.
    Gao, M. Huber, C.-C. Lin, E. Magnier, Y. Ramanjooloo, R. Wainscoat, R.
    Weryk.  1.8-m Ritchey-Chretien + CCD.
W84 Cerro Tololo-DECam.  Observers C. Trujillo, S. Sheppard, D. Hollowood, K.
    Romer, S. Bhargava, M. Gill, B. Yanny, M. Murphy.  Measurer S. Deen.
    4.0-m reflector + CCD.

Orbital elements:
2024 NE4                                                 Earth MOID = 0.0982 AU
Epoch 2024 Oct. 17.0 TT = JDT 2460600.5                 Veres                   
M  26.37040              (2000.0)            P               Q                  
n   0.56094972     Peri.  188.29623     +0.87080969     +0.47050291             
a   1.4560851      Node   142.54277     -0.43653223     +0.87337446             
e   0.2386650      Incl.   13.55477     -0.22611965     +0.12587317             
P   1.76           H   22.94          G   0.15           U   0                  
Residuals in seconds of arc
170818 F51  0.0   0.0     240611 F51  0.0   0.0     240729 F51  0.0   0.0
170818 F51  0.0   0.0     240611 F51  0.5+  0.2+    240729 F51  0.1+  0.3-
171017 W84  0.1-  0.2+    240615 F51  0.2+  0.0     240729 F51  0.1+  0.1-
171110 W84  0.2-  0.2+    240615 F51  0.0   0.1-    240729 F51  0.0   0.3-
171110 W84  0.1-  0.3+    240615 F51  0.3-  0.3-    240729 F51  0.0   0.0
171110 W84  0.2-  0.2+    240615 F51  0.2-  0.0     240729 F51  0.3+  0.0
200126 W84  0.6+  0.3-    240627 F51  0.1+  0.1+    240730 673  0.4-  0.3-
200127 W84  0.3+  0.0     240627 F51  0.2+  0.2-    240730 673  0.0   0.3-
240603 W84  0.2+  0.1-    240702 F51  0.1-  0.1+    240731 673  0.2+  0.3+
240603 W84  0.0   0.2+    240702 F51  0.1-  0.2+    240731 673  0.0   0.4-
240611 F51  0.1+  0.1-    240702 F51  0.1+  0.0

Ephemeris:
2024 NE4                 a,e,i = 1.46, 0.24, 14                  q = 1.1086
Date    TT    R. A. (2000) Decl.     Delta      r    Elong.  Phase     V
2024 07 04    17 49 03.2 +25 16 45   0.2565  1.1961   129.4    41.1    22.0
...
2024 07 19    17 41 25.4 +18 35 11   0.2087  1.1587   128.9    43.0    21.5
...
2024 07 27    17 41 29.8 +12 04 00   0.1873  1.1424   128.8    43.8    21.3
...
2024 08 02    17 44 24.0 +05 38 01   0.1742  1.1320   128.7    44.4    21.1
2024 08 03    17 45 10.2 +04 25 53   0.1723  1.1305   128.7    44.5    21.1
2024 08 04    17 46 01.8 +03 11 37   0.1705  1.1290   128.7    44.6    21.1
...
2024 08 10    17 53 14.1 -04 55 06   0.1619  1.1210   128.2    45.3    21.0
...
2024 08 18    18 09 03.2 -16 59 11   0.1573  1.1134   126.7    46.8    20.9
...
2024 09 02    19 01 30.3 -38 15 10   0.1722  1.1087   121.5    50.9    21.2

A. U. Tomatic                (C) Copyright 2024 MPC           M.P.E.C. 2024-P48





More information about the Iaude mailing list